Location: Ay?beleni
(36.6500°N, 30.3000°E)
Time: 00:02:21
(UTC+00:00)

NOSS 3-4 (C) - Pass Details

Date: 09 April 2020
Orbit: 894 x 1319 km, 63.4° (Epoch: 01 June)

Event Time Altitude Azimuth Distance (km) Brightness Sun altitude
Rises 17:40:00 0° 329° (NNW) 3,880 7.5 -14.6°
Reaches altitude 10° 17:42:34 10° 332° (NNW) 2,980 6.8 -15.1°
Maximum altitude 17:49:44 71° 57° (ENE) 1,257 3.9 -16.4°
Enters shadow 17:55:10 22° 137° (SE) 2,441 5.0 -17.4°
